This is the latest recevied weather packets stored in our database for station/object KC1OEK-13. If no packets are shown the sender has not sent any weather packets the latest 10 day(s).
| Time | Temp. | Humidity | Pressure | Rain* | Wind** | Luminosity | Snow |
|---|---|---|---|---|---|---|---|
| 1777585108 | 13.33° C | 83% | 1008.3 hPa | 0 mm | - | 27 W/m² | - |
| 1777584805 | 12.78° C | 83% | 1008.1 hPa | 0 mm | - | 40 W/m² | - |
| 1777584503 | 12.78° C | 82% | 1007.9 hPa | 0 mm | - | 70 W/m² | - |
| 1777584199 | 12.78° C | 82% | 1007.9 hPa | 0 mm | - | 92 W/m² | - |
| 1777583898 | 12.78° C | 84% | 1007.8 hPa | 0 mm | - | 88 W/m² | - |
| 1777583594 | 12.78° C | 84% | 1007.8 hPa | 0 mm | - | 70 W/m² | - |
| 1777583293 | 12.78° C | 82% | 1007.7 hPa | 0 mm | - | 53 W/m² | - |
| 1777582988 | 12.78° C | 82% | 1007.7 hPa | 0 mm | - | 34 W/m² | - |
| 1777582686 | 12.78° C | 82% | 1007.8 hPa | 0 mm | - | 31 W/m² | - |
| 1777582381 | 13.33° C | 83% | 1007.6 hPa | 0 mm | - | 42 W/m² | - |
| 1777582079 | 13.33° C | 82% | 1007.4 hPa | 0 mm | - | 66 W/m² | - |
| 1777581774 | 13.33° C | 82% | 1007.5 hPa | 0 mm | - | 93 W/m² | - |
| 1777581473 | 13.33° C | 81% | 1007.6 hPa | 0 mm | - | 112 W/m² | - |
| 1777581167 | 13.33° C | 80% | 1007.5 hPa | 0 mm | - | 153 W/m² | - |
| 1777580862 | 13.33° C | 81% | 1007.5 hPa | 0 mm | - | 155 W/m² | - |
| 1777580557 | 13.33° C | 83% | 1007.7 hPa | 0 mm | - | 152 W/m² | - |
| 1777580253 | 13.33° C | 82% | 1007.6 hPa | 0 mm | - | 125 W/m² | - |
| 1777579951 | 12.78° C | 82% | 1007.6 hPa | 0 mm | - | 109 W/m² | - |
| 1777579646 | 13.33° C | 83% | 1007.6 hPa | 0 mm | - | 88 W/m² | - |
| 1777579344 | 13.33° C | 83% | 1007.5 hPa | 0 mm | - | 64 W/m² | - |
| 1777579040 | 13.33° C | 83% | 1007.6 hPa | 0 mm | - | 63 W/m² | - |
| 1777578735 | 12.78° C | 83% | 1007.7 hPa | 0 mm | - | 65 W/m² | - |
| 1777578435 | 12.78° C | 82% | 1007.6 hPa | 0 mm | - | 57 W/m² | - |
| 1777578131 | 12.78° C | 83% | 1007.6 hPa | 0 mm | - | 59 W/m² | - |
| 1777577827 | 12.78° C | 83% | 1007.7 hPa | 0 mm | - | 46 W/m² | - |
* Rain latest hour (hover to see other rain measurements)
** Current wind speed in m/s (hover to see current wind gust speed)